Tracking 30009 objects as of 7-Dec-2024
HD Live streaming from Space Station
objects crossing your sky now

BREEZE-M DEB (TANK)

Track BREEZE-M DEB (TANK) now!
10-day predictions


NORAD ID: 40366
Int'l Code: 2014-089C
Perigee: 324.9 km
Apogee: 14,654.9 km
Inclination: 49.5 °
Period: 270.7 minutes
Semi major axis: 13860 km
RCS: Unknown
Launch date: December 27, 2014
Source: Commonwealth of Independent States (former USSR) (CIS)
Launch site: TYURATAM MISSILE AND SPACE COMPLEX (TTMTR)

Note: This is SATELLITE DEBRIS
Your satellite tracking list
Your tracking list is empty




NASA's NSSDC Master Catalog

Two Line Element Set (TLE):
1 40366U 14089C   24342.31548186  .00005457  00000-0  12204-2 0  9994
2 40366  49.5436 123.7342 5169212 238.8754  60.4722  5.32003509190319
Source of the keplerian elements: AFSPC